DW5536 Weather Reports


time (UTC)temp
F
wind
direction
speed
knots
gust
knots
rain 1hr
in
rain 24hr
in
rain mn
in
humidity
%
barometer
mb
20260509022002 56 207 0.0 0.0 0.00 0.00 0.00 69 1011.0
20260509021502 56 207 0.0 0.0 0.00 0.00 0.00 68 1011.0
20260509020502 56 207 0.0 0.0 0.00 0.00 0.00 68 1010.9
20260509020002 56 207 0.0 0.0 0.00 0.00 0.00 68 1010.9
20260509015502 56 207 0.0 0.0 0.00 0.00 0.00 68 1010.8
20260509015002 56 207 0.0 0.0 0.00 0.00 0.00 66 1010.9
20260509014502 57 207 0.0 0.0 0.00 0.00 0.00 66 1011.0
20260509014002 57 207 0.0 0.0 0.00 0.00 0.00 65 1011.0
20260509013502 58 207 0.0 0.0 0.00 0.00 0.00 63 1011.0
20260509013002 58 207 0.0 0.0 0.00 0.00 0.00 61 1011.0
20260509012501 59 207 0.0 1.7 0.00 0.00 0.00 60 1011.0
20260509012002 59 207 0.0 1.7 0.00 0.00 0.00 60 1011.0
20260509011501 60 207 0.0 0.0 0.00 0.00 0.00 59 1010.9
20260509010501 62 207 0.0 0.0 0.00 0.00 0.00 54 1010.9
20260509010001 63 207 0.0 1.7 0.00 0.00 0.00 52 1010.9
20260509005001 64 207 0.0 3.5 0.00 0.00 0.00 50 1010.7
20260509004501 64 207 3.5 5.2 0.00 0.00 0.00 49 1010.7
20260509004001 65 216 0.0 5.2 0.00 0.00 0.00 48 1010.7
20260509003501 65 221 1.7 10.4 0.00 0.00 0.00 48 1010.8
20260509003001 65 221 0.0 10.4 0.00 0.00 0.00 48 1010.8
20260509002501 66 198 0.0 8.7 0.00 0.00 0.00 47 1010.7
20260509001501 66 193 7.0 7.0 0.00 0.00 0.00 47 1010.8
20260509000501 67 211 3.5 8.7 0.00 0.00 0.00 46 1010.9
20260509000001 67 204 3.5 13.9 0.00 0.00 0.00 46 1011.0
20260508235000 67 226 1.7 8.7 0.00 0.00 0.00 46 1011.0
20260508234501 67 210 1.7 7.0 0.00 0.00 0.00 45 1011.0
20260508234001 68 266 1.7 7.0 0.00 0.00 0.00 45 1011.0
20260508233500 68 207 5.2 10.4 0.00 0.00 0.00 45 1011.0
20260508233001 68 202 3.5 12.2 0.00 0.00 0.00 44 1011.2
20260508232000 69 207 7.0 12.2 0.00 0.00 0.00 43 1011.2
20260508231501 70 223 1.7 12.2 0.00 0.00 0.00 43 1011.4
20260508231000 69 280 1.7 12.2 0.00 0.00 0.00 43 1011.2
20260508230500 70 190 5.2 12.2 0.00 0.00 0.00 42 1011.3
20260508230000 70 151 3.5 13.9 0.00 0.00 0.00 41 1011.2
20260508225500 71 256 1.7 19.1 0.00 0.00 0.00 41 1010.7
20260508225000 72 221 3.5 19.1 0.00 0.00 0.00 39 1010.6
20260508224501 72 182 3.5 13.9 0.00 0.00 0.00 40 1010.8
20260508224000 72 210 3.5 15.6 0.00 0.00 0.00 40 1010.8
20260508223500 72 154 3.5 15.6 0.00 0.00 0.00 40 1010.8
20260508223000 72 203 3.5 15.6 0.00 0.00 0.00 40 1010.8
20260508222500 73 193 13.9 15.6 0.00 0.00 0.00 39 1010.9
20260508222000 73 256 5.2 20.9 0.00 0.00 0.00 39 1010.8
20260508221500 72 228 3.5 20.9 0.00 0.00 0.00 40 1010.7
20260508221000 73 207 7.0 20.9 0.00 0.00 0.00 37 1010.6
20260508220500 73 200 7.0 13.9 0.00 0.00 0.00 38 1010.7
20260508215500 73 216 5.2 15.6 0.00 0.00 0.00 37 1010.7
20260508215000 73 261 0.0 15.6 0.00 0.00 0.00 38 1010.8
20260508214459 73 244 8.7 15.6 0.00 0.00 0.00 36 1010.8
20260508214000 73 251 7.0 10.4 0.00 0.00 0.00 36 1010.8
20260508213000 73 256 3.5 19.1 0.00 0.00 0.00 39 1010.8
20260508212500 73 259 5.2 12.2 0.00 0.00 0.00 37 1010.8
20260508211959 73 278 3.5 12.2 0.00 0.00 0.00 39 1010.8
20260508211459 73 197 3.5 15.6 0.00 0.00 0.00 37 1010.9
20260508210959 73 245 7.0 15.6 0.00 0.00 0.00 36 1011.0
20260508210459 73 265 5.2 13.9 0.00 0.00 0.00 38 1011.0
20260508205459 73 208 5.2 19.1 0.00 0.00 0.00 41 1011.2
20260508204959 74 213 10.4 17.4 0.00 0.00 0.00 36 1011.5
20260508204459 73 261 0.0 15.6 0.00 0.00 0.00 39 1011.5
20260508203959 73 203 7.0 15.6 0.00 0.00 0.00 38 1011.6
20260508203459 74 200 15.6 15.6 0.00 0.00 0.00 38 1011.8
20260508202959 74 157 0.0 15.6 0.00 0.00 0.00 40 1011.8
20260508202459 74 249 3.5 15.6 0.00 0.00 0.00 37 1011.9
20260508201959 74 199 5.2 10.4 0.00 0.00 0.00 38 1012.0
20260508201459 74 197 5.2 13.9 0.00 0.00 0.00 38 1012.2
20260508200959 74 133 5.2 13.9 0.00 0.00 0.00 39 1012.5
20260508200459 73 261 1.7 12.2 0.00 0.00 0.00 39 1012.5
20260508194959 73 202 10.4 17.4 0.00 0.00 0.00 36 1012.3
20260508193959 73 287 3.5 17.4 0.00 0.00 0.00 38 1012.3
20260508193459 73 216 1.7 17.4 0.00 0.00 0.00 37 1012.3
20260508192959 73 241 12.2 12.2 0.00 0.00 0.00 39 1012.2
20260508192459 73 278 0.0 13.9 0.00 0.00 0.00 39 1012.2
20260508191959 73 214 5.2 13.9 0.00 0.00 0.00 39 1012.3
20260508191459 73 259 5.2 10.4 0.00 0.00 0.00 41 1012.4
20260508190458 72 10 3.5 13.9 0.00 0.00 0.00 41 1012.6
20260508185958 72 190 7.0 19.1 0.00 0.00 0.00 40 1012.6
20260508184958 73 188 10.4 13.9 0.00 0.00 0.00 40 1012.8
20260508184459 73 263 3.5 13.9 0.00 0.00 0.00 40 1012.9
20260508183958 73 290 5.2 13.9 0.00 0.00 0.00 40 1012.9
20260508183458 73 143 3.5 13.9 0.00 0.00 0.00 40 1013.0
20260508182958 73 121 5.2 22.6 0.00 0.00 0.00 40 1013.1
20260508182459 72 197 12.2 22.6 0.00 0.00 0.00 42 1013.3
20260508181958 72 297 3.5 13.9 0.00 0.00 0.00 40 1013.2
20260508181458 72 46 3.5 12.2 0.00 0.00 0.00 42 1013.4
20260508180458 72 216 7.0 12.2 0.00 0.00 0.00 41 1013.7
20260508175958 72 98 5.2 15.6 0.00 0.00 0.00 42 1013.7
20260508175458 72 197 1.7 15.6 0.00 0.00 0.00 40 1013.8
20260508174958 71 270 5.2 12.2 0.00 0.00 0.00 44 1013.9
20260508174458 71 306 1.7 12.2 0.00 0.00 0.00 45 1014.0
20260508173958 71 206 8.7 12.2 0.00 0.00 0.00 43 1014.1
20260508172958 71 195 3.5 17.4 0.00 0.00 0.00 44 1014.3
20260508172458 71 178 1.7 13.9 0.00 0.00 0.00 43 1014.4
20260508171958 71 254 0.0 13.9 0.00 0.00 0.00 45 1014.5
20260508171458 71 297 0.0 13.9 0.00 0.00 0.00 44 1014.7
20260508170957 71 193 3.5 15.6 0.00 0.00 0.00 43 1014.8
20260508170458 70 188 5.2 15.6 0.00 0.00 0.00 47 1014.7
20260508165957 71 165 3.5 13.9 0.00 0.00 0.00 43 1014.8
20260508165457 71 202 3.5 13.9 0.00 0.00 0.00 43 1014.9
20260508164457 70 204 3.5 12.2 0.00 0.00 0.00 43 1015.3
20260508163958 70 182 1.7 12.2 0.00 0.00 0.00 45 1015.4
20260508162958 70 221 3.5 13.9 0.00 0.00 0.00 45 1015.5
20260508162457 69 189 3.5 12.2 0.00 0.00 0.00 46 1015.6
20260508161957 69 186 5.2 12.2 0.00 0.00 0.00 46 1015.6
20260508161457 69 264 0.0 10.4 0.00 0.00 0.00 47 1015.8
20260508160957 69 218 10.4 17.4 0.00 0.00 0.00 48 1015.8
20260508160457 69 199 5.2 17.4 0.00 0.00 0.00 47 1015.9
20260508155957 69 213 3.5 10.4 0.00 0.00 0.00 45 1015.9
20260508155457 69 210 7.0 10.4 0.00 0.00 0.00 46 1016.0
20260508154457 68 268 0.0 12.2 0.00 0.00 0.00 46 1016.2
20260508153957 68 237 3.5 13.9 0.00 0.00 0.00 48 1016.2
20260508153457 67 273 1.7 13.9 0.00 0.00 0.00 48 1016.4
20260508152457 67 227 7.0 13.9 0.00 0.00 0.00 48 1016.5
20260508151957 67 172 1.7 12.2 0.00 0.00 0.00 50 1016.5
20260508150957 66 207 5.2 10.4 0.00 0.00 0.00 49 1016.5
20260508150527 65 204 7.0 8.7 0.00 0.00 0.00 48 1016.6
20260508145957 65 233 5.2 8.7 0.00 0.00 0.00 50 1016.6
20260508145527 65 210 3.5 13.9 0.00 0.00 0.00 52 1016.6
20260508144456 64 235 5.2 12.2 0.00 0.00 0.00 49 1016.6
20260508143456 63 195 7.0 12.2 0.00 0.00 0.00 50 1016.7
20260508142956 63 197 1.7 12.2 0.00 0.00 0.00 51 1016.5
20260508142457 63 214 5.2 12.2 0.00 0.00 0.00 55 1016.5
20260508141957 63 207 5.2 12.2 0.00 0.00 0.00 53 1016.5
20260508140956 62 157 3.5 10.4 0.00 0.00 0.00 55 1016.6
20260508135956 61 203 0.0 10.4 0.00 0.00 0.00 60 1016.6
20260508135526 60 247 0.0 10.4 0.00 0.00 0.00 60 1016.7
20260508134956 59 240 0.0 10.4 0.00 0.00 0.00 60 1016.8
20260508134456 59 207 5.2 10.4 0.00 0.00 0.00 61 1016.8
20260508133956 59 202 8.7 8.7 0.00 0.00 0.00 62 1016.8
20260508133526 58 199 1.7 8.7 0.00 0.00 0.00 61 1016.7
20260508132956 58 204 5.2 8.7 0.00 0.00 0.00 60 1016.7
20260508132456 57 238 1.7 7.0 0.00 0.00 0.00 63 1016.7
20260508131956 56 234 3.5 8.7 0.00 0.00 0.00 64 1016.7
20260508131525 56 233 3.5 8.7 0.00 0.00 0.00 63 1016.6
20260508130955 55 218 1.7 8.7 0.00 0.00 0.00 65 1016.6
20260508125956 54 216 3.5 12.2 0.00 0.00 0.00 65 1016.6
20260508125525 55 210 7.0 12.2 0.00 0.00 0.00 63 1016.8
20260508124455 55 186 5.2 7.0 0.00 0.00 0.00 62 1016.8
20260508123956 55 290 0.0 7.0 0.00 0.00 0.00 61 1016.8
20260508123525 55 196 0.0 3.5 0.00 0.00 0.00 64 1016.8
20260508122955 54 226 0.0 7.0 0.00 0.00 0.00 66 1016.8
20260508122456 55 203 3.5 7.0 0.00 0.00 0.00 61 1016.9
20260508121955 56 230 3.5 3.5 0.00 0.00 0.00 65 1016.8
20260508121455 55 241 0.0 0.0 0.00 0.00 0.00 78 1016.8
20260508120955 55 241 0.0 0.0 0.00 0.00 0.00 83 1016.8
20260508120455 53 241 0.0 0.0 0.00 0.00 0.00 90 1016.7
20260508120025 52 240 0.0 0.0 0.00 0.00 0.00 92 1016.6
20260508115455 50 241 0.0 0.0 0.00 0.00 0.00 92 1016.8
20260508114955 49 241 0.0 0.0 0.00 0.00 0.00 93 1016.8
20260508114525 47 241 0.0 0.0 0.00 0.00 0.00 92 1016.6
20260508114025 45 241 0.0 0.0 0.00 0.00 0.00 92 1016.6
20260508113455 43 240 0.0 0.0 0.00 0.00 0.00 92 1016.4
20260508113025 40 242 0.0 0.0 0.00 0.00 0.00 92 1016.3
20260508112455 38 242 0.0 0.0 0.00 0.00 0.00 92 1016.2
20260508111955 35 242 0.0 0.0 0.00 0.00 0.00 92 1016.0
20260508111455 35 242 0.0 0.0 0.00 0.00 0.00 92 1016.0
20260508110955 35 242 0.0 0.0 0.00 0.00 0.00 92 1016.0
20260508110524 34 242 0.0 0.0 0.00 0.00 0.00 92 1016.1
20260508110024 34 241 0.0 0.0 0.00 0.00 0.00 92 1016.0
20260508104954 34 242 0.0 0.0 0.00 0.00 0.00 92 1016.2
20260508104524 34 242 0.0 0.0 0.00 0.00 0.00 92 1016.1
20260508103454 34 242 0.0 0.0 0.00 0.00 0.00 92 1016.1
20260508102954 34 242 0.0 0.0 0.00 0.00 0.00 92 1016.1
20260508102025 35 240 0.0 0.0 0.00 0.00 0.00 92 1016.0
20260508101454 35 242 0.0 0.0 0.00 0.00 0.00 92 1015.9
20260508100954 35 242 0.0 0.0 0.00 0.00 0.00 92 1015.9
20260508100024 35 242 0.0 0.0 0.00 0.00 0.00 92 1015.9
20260508095454 35 242 0.0 0.0 0.00 0.00 0.00 92 1016.0
20260508094954 36 242 0.0 0.0 0.00 0.00 0.00 92 1015.9
20260508094454 36 242 0.0 0.0 0.00 0.00 0.00 92 1015.9
20260508094024 35 242 0.0 0.0 0.00 0.00 0.00 92 1015.9
20260508093454 35 242 0.0 0.0 0.00 0.00 0.00 92 1016.0
20260508092954 36 242 0.0 0.0 0.00 0.00 0.00 92 1016.0
20260508092524 36 242 0.0 0.0 0.00 0.00 0.00 92 1015.9
20260508091954 36 242 0.0 0.0 0.00 0.00 0.00 92 1015.9
20260508091453 36 242 0.0 0.0 0.00 0.00 0.00 92 1015.8
20260508090453 36 242 0.0 0.0 0.00 0.00 0.00 92 1015.9
20260508090023 36 242 0.0 0.0 0.00 0.00 0.00 92 1015.8
20260508084953 36 241 0.0 0.0 0.00 0.00 0.00 92 1015.8
20260508084453 36 242 0.0 0.0 0.00 0.00 0.00 92 1015.8
20260508084023 35 242 0.0 0.0 0.00 0.00 0.00 92 1015.7
20260508083524 35 242 0.0 0.0 0.00 0.00 0.00 92 1015.7
20260508082953 35 242 0.0 0.0 0.00 0.00 0.00 92 1015.7
20260508082023 36 242 0.0 0.0 0.00 0.00 0.00 92 1015.9
20260508081523 36 242 0.0 0.0 0.00 0.00 0.00 92 1015.9
20260508081023 36 242 0.0 0.0 0.00 0.00 0.00 91 1015.9
20260508080523 36 241 0.0 0.0 0.00 0.00 0.00 91 1015.9
20260508075953 36 242 0.0 0.0 0.00 0.00 0.00 91 1015.9
20260508075523 36 241 0.0 0.0 0.00 0.00 0.00 91 1015.8
20260508075023 36 242 0.0 0.0 0.00 0.00 0.00 91 1015.9
20260508074523 36 242 0.0 0.0 0.00 0.00 0.00 91 1015.8
20260508073953 36 242 0.0 0.0 0.00 0.00 0.00 91 1015.9
20260508073453 36 242 0.0 0.0 0.00 0.00 0.00 91 1015.9
20260508073023 37 242 0.0 0.0 0.00 0.00 0.00 91 1015.9
20260508072522 37 242 0.0 0.0 0.00 0.00 0.00 91 1015.9
20260508072023 37 242 0.0 0.0 0.00 0.00 0.00 91 1015.8
20260508071523 37 242 0.0 0.0 0.00 0.00 0.00 91 1015.9
20260508070952 38 242 0.0 0.0 0.00 0.00 0.00 91 1016.0
20260508065522 38 242 0.0 0.0 0.00 0.00 0.00 91 1016.0
20260508064952 38 242 0.0 0.0 0.00 0.00 0.00 91 1016.0
20260508063522 38 242 0.0 0.0 0.00 0.00 0.00 90 1016.1
20260508063022 38 242 0.0 0.0 0.00 0.00 0.00 90 1016.1
20260508062522 38 242 0.0 0.0 0.00 0.00 0.00 90 1016.1
20260508062022 38 242 0.0 0.0 0.00 0.00 0.00 90 1016.2
20260508061522 38 242 0.0 0.0 0.00 0.00 0.00 90 1016.1
20260508060522 38 242 0.0 0.0 0.00 0.00 0.00 90 1016.2
20260508055522 37 242 0.0 0.0 0.00 0.00 0.00 90 1016.3
20260508054522 37 242 0.0 0.0 0.00 0.00 0.00 89 1016.3
20260508054022 38 240 0.0 0.0 0.00 0.00 0.00 89 1016.3
20260508053522 38 242 0.0 0.0 0.00 0.00 0.00 89 1016.3
20260508053022 38 241 0.0 0.0 0.00 0.00 0.00 89 1016.4
20260508052522 38 242 0.0 0.0 0.00 0.00 0.00 89 1016.4
20260508052022 38 242 0.0 0.0 0.00 0.00 0.00 89 1016.4
20260508051522 38 242 0.0 0.0 0.00 0.00 0.00 89 1016.3
20260508050021 38 242 0.0 0.0 0.00 0.00 0.00 88 1016.2
20260508045522 38 240 0.0 0.0 0.00 0.00 0.00 87 1016.1
20260508045022 39 242 0.0 0.0 0.00 0.00 0.00 87 1016.2
20260508044521 39 240 0.0 0.0 0.00 0.00 0.00 87 1016.1
20260508043451 39 241 0.0 0.0 0.00 0.00 0.00 87 1016.1
20260508043021 39 242 0.0 0.0 0.00 0.00 0.00 87 1016.1
20260508042521 40 240 0.0 0.0 0.00 0.00 0.00 87 1016.2
20260508042021 40 240 0.0 0.0 0.00 0.00 0.00 87 1016.1
20260508041521 40 242 0.0 0.0 0.00 0.00 0.00 86 1016.1
20260508041021 40 241 0.0 0.0 0.00 0.00 0.00 86 1016.1
20260508040521 40 242 0.0 0.0 0.00 0.00 0.00 86 1016.1
20260508040021 41 242 0.0 0.0 0.00 0.00 0.00 85 1016.1
20260508035521 41 241 0.0 0.0 0.00 0.00 0.00 86 1016.1
20260508035021 41 240 0.0 0.0 0.00 0.00 0.00 86 1016.1
20260508034021 42 242 0.0 0.0 0.00 0.00 0.00 85 1016.2
20260508033521 42 242 0.0 0.0 0.00 0.00 0.00 85 1016.2
20260508033021 42 242 0.0 0.0 0.00 0.00 0.00 85 1016.3
20260508032521 42 242 0.0 0.0 0.00 0.00 0.00 84 1016.2
20260508032021 42 242 0.0 1.7 0.00 0.00 0.00 84 1016.2
20260508031520 42 240 0.0 1.7 0.00 0.00 0.00 84 1016.2
20260508031021 42 240 0.0 0.0 0.00 0.00 0.00 82 1016.2
20260508030021 42 242 0.0 0.0 0.00 0.00 0.00 81 1016.2
20260508025520 43 242 0.0 0.0 0.00 0.00 0.00 80 1016.0
20260508024521 43 242 0.0 0.0 0.00 0.00 0.00 81 1016.1
20260508024021 43 242 0.0 0.0 0.00 0.00 0.00 81 1016.0
20260508023521 43 241 0.0 0.0 0.00 0.00 0.00 80 1016.0
20260508023020 43 242 0.0 0.0 0.00 0.00 0.00 79 1016.0
20260508022521 43 242 0.0 0.0 0.00 0.00 0.00 76 1015.9